SCP
0 0 0 0 0 0 0 0 0 0 0 0 0 0 0 0 0 0 0 0 0 0 0 0 0 0 0 0 0 0 0 0 0 0 0 0 0 0 0 0 0 0 0 0
0 0 0 0 0 0 0 0 0 0 0 0 0 0 0 0 0 0 0 0 0 0 0 0 0 0 0 0 0 0 0 0 0 0 0 0 0 0 0 0 0 0 0 0
0 0 0 0 0 0 0 0 0 0 0 0 0 0 0 0 0 0 0 0 0 0 0 0 0 0 0 0 0 0 0 0 0 0 0 0 0 0 0 -0 0 0 0 0
0 0 0 0 0 0 0 0 0 0 0 0 0 0 0 0 0 0 0 0 0 0 0 0 0 0 0 0 0 0 0 0 0 0 0 0 0 0 0 -0 0 0 0 0
0 0 0 0 0 0 0 0 0 0 0 0 0 0 0 0 0 0 0 0 0 0 0 0 0 0 0 0 0 0 0 0 0 0 0 0 0 0 0 -0 0 0 0 0
0 0 0 0 0 0 0 0 0 0 0 0 0 0 0 0 0 0 0 0 0 0 0 0 0 0 0 0 0 0 0 0 0 0 0 0 0 0 0 0 0 0 0 0
0 0 0 0 0 0 0 0 0 0 0 0 0 0 0 0 0 0 0 0 0 0 0 0 0 0 0 0 0 0 0 0 0 0 0 0 0 0 0 0 0 0 0 0
0 0 0 0 0 0 0 0 0 0 0 0 0 0 0 0 0 0 0 0 0 0 0 0 0 0 0 0 0 0 0 0 0 0 0 0 0 0 0 0 0 0 0 0
0 0 0 0 0 0 0 0 0 0 0 0 0 0 0 0 0 0 0 0 0 0 0 0 0 0 0 0 0 0 0 0 0 0 0 0 0 0 0 0 0 0 0 0
0 0 0 0 0 0 0 0 0 0 0 0 0 0 0 0 0 0 0 0 0 0 0 0 0 0 0 0 0 0 0 0 0 0 0 0 0 0 0 0 0 0 0 0
0 0 0 0 0 0 0 0 0 0 0 0 0 0 0 0 0 0 0 0 0 0 0 0 0 0 0 0 0 0 0 0 0 0 0 0 0 0 0 0 0 0 0 -0
0 0 0 0 0 0 0 0 0 0 0 0 0 0 0 0 0 0 0 0 0 0 0 0 0 0 0 0 0 0 0 0 0 0 0 0 0 0 0 0 0 0 -0 -0
0 0 0 0 0 0 0 0 0 0 0 0 0 0 0 0 0 0 0 0 0 0 0 0 0 0 0 0 0 0 0 0 0 0 0 0 0 0 0 0 0 0 0 0
0 0 0 0 0 0 0 0 0 0 0 0 0 0 0 0 0 0 0 0 0 0 0 0 0 0 0 0 0 0 0 0 0 0 0 0 0 0 0 0 0 0 0 0
0 0 0 0 0 0 0 0 0 0 0 0 0 0 0 0 0 0 0 0 0 0 0 0 0 0 0 0 0 0 0 0 0 0 0 0 0 0 0 0 0 0 0 0
0 0 0 0 0 0 0 0 0 0 0 0 0 0 0 0 0 0 0 0 0 0 0 0 0 0 0 0 0 0 0 0 0 0 0 0 0 0 0 0 0 0 0 0
0 0 0 0 0 0 0 0 0 0 0 0 0 0 0 0 0 0 0 0 0 0 0 0 0 0 0 0 0 0 0 0 0 0 0 0 0 0 0 0 0 0 0 0
0 0 0 0 0 0 0 0 0 0 0 0 0 0 0 0 0 0 0 0 0 0 0 0 0 0 0 0 0 0 0 0 0 0 0 0 0 0 0 0 0 0 0 0
0 0 0 0 0 0 0 0 0 0 0 0 0 0 0 0 0 0 0 0 0 0 0 0 0 0 0 0 0 0 0 0 0 0 0 -0 -0 0 0 0 0 0 0 0
0 0 0 0 0 0 0 0 0 0 0 0 0 0 0 0 0 0 0 0 0 0 0 0 0 0 0 0 0 0 0 0 0 0 0 0 0 0 0 0 0 0 0 0
0 0 0 0 0 0 0 0 0 0 0 0 0 0 0 0 0 0 0 0 0 0 0 0 0 0 0 0 0 0 0 0 0 0 0 0 0 0 0 0 0 0 0 0
0 0 0 0 0 0 0 -0 0 0 0 0 0 0 0 0 0 0 0 0 0 0 0 0 0 0 0 0 0 0 0 0 0 0 -0 -0 0 0 0 0 0 0 0 0
0 0 0 0 0 0 0 -0 0 0 0 0 0 0 0 0 0 0 0 0 0 0 0 0 0 0 0 0 0 0 0 0 0 0 0 0 0 0 0 0 0 0 0 0
0 0 0 0 0 0 -0 -0 0 0 0 0 0 0 0 0 0 0 0 0 0 0 0 0 0 0 0 0 0 0 0 0 0 0 0 0 0 0 0 0 0 0 0 0
0 -0 0 0 0 0 0 0 0 0 0 0 0 0 0 0 0 0 0 0 0 0 0 0 0 0 0 0 0 0 0 0 0 0 0 0 0 0 0 0 0 0 0 0
0 -0 0 0 0 0 0 0 0 0 0 0 0 0 0 0 0 0 0 0 0 0 0 0 0 0 0 0 0 0 0 0 0 0 0 0 0 0 0 0 0 0 0 0
Wind_Speed
1 3 1 4 5 4 4 3 2 2 2 4 4 4 6 6 6 6 6 6 7 7 5 5 6 6 6 6 6 6 5 4 4 3 3 3 2 1 2 2 3 4 4 4
3 1 5 4 4 4 3 2 1 1 2 3 3 3 5 6 9 9 9 8 8 6 5 5 5 5 5 6 6 5 5 4 3 3 2 2 2 1 1 2 3 4 4 4
3 4 3 3 4 4 3 4 3 3 2 3 3 2 2 3 4 7 8 8 8 10 9 7 6 5 6 6 6 5 4 4 4 4 3 3 3 3 3 3 2 3 4 4
2 2 2 2 3 4 3 5 5 5 3 0 3 2 4 5 4 6 8 8 8 9 8 7 6 6 6 6 6 5 4 4 4 5 5 5 3 2 1 0 1 2 3 3
1 2 2 2 2 3 3 4 4 3 3 1 1 2 5 3 6 8 9 10 10 9 10 9 8 7 6 6 6 5 5 4 4 5 5 5 3 2 1 1 2 2 3 4
2 1 2 3 2 2 4 5 4 5 4 1 3 3 5 5 10 10 10 11 11 10 9 8 7 7 5 5 5 5 5 4 4 4 5 5 5 4 3 2 2 2 2 3
3 2 1 3 3 2 4 5 3 3 2 4 3 3 7 7 8 11 13 13 12 11 10 9 9 8 7 6 5 5 5 4 4 4 4 5 5 5 4 2 2 1 1 1
1 3 3 2 5 5 3 6 5 3 3 3 2 3 6 5 6 8 10 11 11 11 10 10 10 8 7 7 6 5 5 4 4 4 4 3 4 3 2 2 2 2 1 0
4 4 2 2 2 7 4 3 5 4 0 1 3 3 5 3 2 7 10 11 11 12 11 10 9 8 8 7 6 6 6 4 4 4 4 4 4 4 3 2 2 2 1 1
6 3 2 1 2 1 5 6 5 4 2 2 3 3 3 3 4 7 11 12 11 10 10 9 9 8 7 7 6 5 5 5 5 5 4 4 3 3 3 3 3 2 2 2
4 4 1 1 3 4 2 3 4 3 3 3 2 5 6 8 8 10 11 12 12 12 11 10 8 7 7 6 6 5 5 5 4 4 4 5 3 3 3 3 2 2 2 2
4 5 1 4 4 4 4 5 6 5 2 3 2 7 6 7 8 9 9 10 11 11 10 9 9 8 7 7 6 6 5 5 5 5 5 4 4 4 4 3 2 3 3 2
6 6 3 4 4 1 1 3 5 5 4 3 3 6 3 2 4 7 9 10 10 10 9 8 8 8 7 7 6 6 6 5 5 5 5 4 4 4 3 3 2 3 3 3
7 5 6 7 6 4 3 3 5 6 4 4 6 6 3 3 5 6 8 10 11 10 11 10 8 7 7 7 7 6 5 5 6 5 5 5 4 3 3 3 3 3 3 3
6 4 4 4 4 3 4 4 6 6 8 7 7 7 9 9 9 9 9 10 11 11 11 11 10 8 7 7 6 6 6 5 6 6 5 4 3 3 3 3 3 3 3 3
4 4 2 2 3 3 4 5 6 7 7 7 5 6 7 6 5 7 9 11 12 12 12 12 11 10 9 9 8 7 7 6 6 6 5 4 4 3 3 3 3 3 3 2
4 5 3 3 3 1 4 8 8 6 6 7 8 9 5 6 9 11 12 12 12 12 11 12 12 11 10 10 9 9 8 7 6 6 5 4 4 4 3 3 3 3 2 2
7 5 4 2 1 3 8 4 6 6 4 5 5 6 8 10 9 8 9 11 11 11 11 11 10 9 9 8 8 8 7 7 7 6 5 4 4 4 3 3 3 2 2 2
6 7 4 3 2 5 6 3 3 4 3 3 5 4 5 6 6 1 3 7 10 11 10 9 9 9 9 9 9 9 7 7 6 6 5 5 5 5 4 4 3 2 2 1
4 5 5 3 3 5 7 5 2 4 2 4 5 6 7 9 5 5 5 5 6 7 8 8 8 8 8 8 9 9 8 7 7 6 6 5 5 5 5 4 3 2 2 2
2 2 3 4 4 7 7 4 3 4 7 4 6 8 9 7 7 6 7 6 6 7 7 8 9 8 8 8 9 8 7 7 6 6 5 5 5 5 4 3 3 3 3 2
6 5 5 4 4 8 5 3 5 7 3 3 4 6 7 6 5 7 8 8 8 8 7 8 8 7 6 8 9 8 7 6 5 6 5 5 4 4 4 4 3 3 3 3
5 8 6 8 7 6 3 4 4 4 4 3 4 5 7 7 7 8 8 8 8 8 8 8 8 7 5 6 8 8 6 6 6 6 5 4 4 3 3 4 3 2 2 2
3 2 4 2 3 3 2 1 1 3 4 4 5 6 8 8 8 8 8 7 7 7 7 7 9 8 6 5 5 6 6 7 8 7 5 4 4 3 3 2 3 3 2 2
4 2 3 2 3 1 2 1 3 3 5 5 5 5 7 9 9 8 8 8 7 6 6 7 8 8 7 6 6 6 7 8 7 6 5 4 4 4 3 2 1 2 2 3
4 6 6 6 7 5 5 4 4 6 5 6 7 5 5 7 8 7 7 7 7 7 6 7 7 7 6 7 6 6 6 8 8 6 5 4 3 3 3 3 2 2 1 0
Wind_Direction
71 76 166 207 186 164 145 141 156 208 168 125 141 158 180 173 159 163 162 162 160 162 164 152 144 141 131 125 120 122 115 108 107 99 99 96 84 56 48 50 54 52 47 47
50 254 227 187 170 137 140 129 135 166 154 136 146 181 194 183 179 180 174 174 167 159 153 148 140 138 138 136 131 131 131 130 124 123 127 130 127 102 70 38 39 40 44 39
182 237 201 158 162 156 158 152 175 167 94 67 101 349 240 220 181 174 173 170 169 166 164 160 150 144 140 142 146 143 147 136 126 118 100 82 61 45 34 26 18 11 31 37
226 242 163 151 184 162 179 186 172 154 115 214 147 203 261 215 198 186 177 170 175 171 162 160 154 151 148 151 146 141 143 133 126 120 116 117 118 122 167 181 7 10 25 34
241 165 138 159 199 162 182 165 142 128 123 70 73 148 272 195 206 206 186 178 179 174 167 166 161 155 150 146 141 139 132 124 122 120 123 120 116 126 105 71 55 29 15 24
242 202 157 172 159 134 122 91 61 55 70 349 232 174 261 213 205 198 189 183 177 175 169 162 157 146 142 137 134 132 132 134 131 124 125 126 129 125 109 88 70 34 8 11
330 321 226 140 110 45 91 93 57 18 23 248 239 182 242 232 206 191 183 181 176 173 166 160 157 153 148 140 142 139 139 143 142 133 132 137 140 136 135 135 119 97 42 13
183 277 240 179 161 165 161 140 151 178 215 276 275 224 258 258 201 179 170 169 168 171 169 166 164 160 156 153 151 147 146 147 148 142 141 136 135 130 131 139 140 138 146 175
178 244 267 187 159 144 145 161 160 133 36 303 283 287 315 5 115 149 154 158 168 173 170 168 165 161 160 159 162 159 150 144 144 143 137 129 130 126 127 125 120 125 135 96
158 190 263 186 84 68 149 147 111 128 163 247 284 266 233 224 190 164 164 170 173 169 166 165 165 165 165 166 163 154 151 149 143 139 138 133 129 127 124 111 106 104 96 79
141 143 304 108 182 192 136 141 139 140 163 163 238 268 226 202 189 179 180 175 171 169 170 169 168 166 162 155 151 147 149 139 135 134 125 118 116 115 107 101 103 104 94 90
144 124 179 249 253 191 168 181 156 155 201 172 181 266 256 199 186 175 174 172 169 168 166 163 160 155 152 154 153 152 156 148 146 139 124 118 113 107 100 99 94 99 99 93
135 117 99 344 335 336 200 199 164 141 130 163 185 262 294 151 156 167 167 166 163 160 157 154 154 158 161 161 159 158 158 151 140 130 123 116 113 113 115 111 102 101 99 86
122 126 162 188 213 200 208 205 167 143 159 195 217 232 259 193 173 172 168 166 163 163 161 159 163 168 168 165 164 161 158 148 138 129 127 129 136 136 133 119 105 98 98 90
114 154 205 225 231 189 205 208 190 186 188 188 219 211 219 206 187 175 167 162 161 164 167 170 172 173 169 165 164 161 155 150 142 134 133 144 143 130 120 113 104 92 87 87
114 154 174 277 265 235 245 237 210 209 203 206 212 236 229 194 161 159 165 165 168 174 177 177 176 173 172 172 168 162 160 156 145 143 148 148 138 127 125 125 113 97 88 80
144 140 139 258 291 3 269 237 216 207 200 188 208 227 189 161 175 179 176 174 176 178 178 178 179 176 176 175 167 166 165 155 148 150 151 151 148 141 142 133 114 109 106 90
144 137 141 186 42 238 248 251 201 190 217 207 202 195 178 179 182 177 172 172 175 176 174 174 172 171 172 167 161 159 153 151 152 155 160 159 152 149 140 126 126 129 115 111
151 142 135 142 193 270 286 273 183 167 243 219 187 180 159 138 97 74 196 178 177 176 172 170 168 162 158 160 160 152 152 153 155 165 173 169 159 151 143 145 158 159 130 116
93 114 127 142 173 230 249 261 210 115 257 253 179 163 148 131 140 220 202 172 164 158 156 154 148 141 149 157 151 147 155 158 169 176 174 166 157 153 158 166 164 147 136 140
103 92 141 167 209 254 254 260 98 147 229 226 176 162 157 165 184 181 159 149 146 146 146 145 144 148 157 154 147 148 156 172 177 165 154 150 154 157 159 154 145 136 129 115
173 168 181 161 193 249 262 132 169 210 209 160 157 158 157 149 135 138 146 143 137 134 134 141 143 146 148 148 147 151 166 170 151 142 140 146 150 151 139 132 130 129 128 119
185 186 180 184 210 239 233 201 198 160 149 155 152 149 142 133 137 142 144 143 142 141 143 142 142 139 142 150 153 159 169 152 139 133 135 138 133 124 127 134 136 122 122 132
265 159 139 198 259 262 258 169 142 146 146 145 142 141 139 140 144 143 143 142 142 142 147 143 142 144 151 156 152 154 151 143 136 137 139 135 130 124 118 124 134 137 151 156
220 149 135 205 251 317 310 213 163 124 116 113 117 131 145 140 141 145 147 150 150 147 148 148 154 158 161 155 147 148 147 141 138 140 141 140 140 140 132 121 136 158 189 185
207 175 172 209 213 183 217 221 166 139 140 138 128 118 133 143 146 144 150 154 151 151 148 147 151 154 154 148 147 148 147 146 143 143 147 147 143 137 131 122 66 25 51 215